CZ-11 DEB (44328 NORAD) Tracking and Keplerian Element Data

This shows tracking and keplerian element data for the satellite.

Feedback or suggestion? Click here.




ElementValue
Catalog44328
NameCZ-11 DEB
Epoch Orbit356
Epoch Day186.20051097
Epoch Year2019
RAAN131.5759
Inclination44.9207
Eccentricity0.0208504
Argument of Perigee118.9359
Mean Anonmoly243.262
Mean Motion15.53839083
Decay Rate0.00257662
L11 44328U 19032Q 19186.20051097 .00257662 25871-4 14525-2 0 9999
L22 44328 44.9207 131.5759 0208504 118.9359 243.2620 15.53839083 3563



Live tracking and technical data element details for CZ-11 DEB (NORAD 44328). CZ-11 DEB can be tracked NOW for your location showing map with azimuth and elevation plus other details from your city location.







IsCatalogInMostPopularTable: catalog: 44328, numindb: 149
Update: records affected: 1



GetName: 44328 CZ-11 DEB

Hit Count: updated at: Sun, 11 Jun 2023 00:42:22 GMT